CZ-3B DEB, 40852

Orbit data source: Space-Track

CZ-3B DEB, 40852 is space debris in HEO originally from a launch on Mon, 19 Dec 2011 UTC launched from the Xichang Space Center, China (XSC). Debris objects in space refer to the collection of defunct objects orbiting the Earth. Examples of debris include non-operational satellites, rocket bodies, and fragments generated from explosions, collisions, or faulty payload assembly.

Loading next visibility...
Identifier
40852, 2011-077AH
Orbit
HEO
Last TLE update
8 hours ago
Origin
Manufacturer
CALT
Mission
Spacecraft
Bus & Motor
Unknown
Mass
Unknown
Launch date (UTC)
2011-12-19 (14 years ago)
Launch vehicle
Unknown
Launch site
Xichang Space Center, China (XSC)
Object type
Payload
Rocket body
Debris
Shape & HBR
Unknown
Radar Cross Section
Medium (>0.1 m² and <1 m²)

Expand to show TLE details & history

TLE from 8 hours ago
0 CZ-3B DEB
1 40852U 11077AH  25182.01965708 -.00000121  00000-0  00000+0 0  9993
2 40852  26.2258 127.3249 7360289 157.1627 269.3058  1.90679412 79646
Epoch: 2025-07-01T00:28Z
TLE epoch observation values (Epoch: 2025-07-01T00:28:18.371Z)
Latitude
0.00005°
Longitude
-159.12274°
Altitude
32,748.367 km
Speed
2.422 km/s
True Right ascension
08h 29m 05s
True Declination
0° 00' 00"
Sunlit
Object was in daylight at epoch
Visualization orbit readout
Latitude
-12.65959°
Longitude
173.72472°
Altitude
40,361.27 km
Speed
1.596 km/s
Apparent Right ascension
06h 50m 47s
Apparent Declination
-15° 57' 48"
Sunlit
Object is in daylight
Visualization observer readout
Local Sidereal Time
20:29:37
Azimuth
48.988° ENE
Elevation
-57.819°
Doppler factor
1
Orbital elements
Apogee altitude
41,317.754 km
Perigee altitude
874.24 km
Semi-major axis
27,474.134 km
Eccentricity
0.73603
Inclination
26.2258°
RAAN
127.3249°
Arg. of periapsis
157.1627°
True anomaly
Unknown
Mean anomaly
269.3058°
Eccentric anomaly
Unknown
Mean motion
0.4766 °/min
Orbital period
755.34 mins
BSTAR
0
Loading maneuver chart data...
Loading SW <> Apogee altitude chart data...
Loading historical data...
Loading historical data...
Loading historical data...
Loading historical data...
Loading historical data...
Loading historical data...
Loading historical data...

CZ-3B DEB Visibility forecast

Observer location: undefined°, undefined°

Span
Click to sort rows by Start time (UTC) header in descending order
Start Az.
Max El. time (UTC)
Max El. Az.
Max El.
End time (UTC)
End Az.
382 mins2025-07-01 17:50:25.773Z199.198° SSW2025-07-01 20:29:25.773Z211.809° SW19.839°2025-07-02 00:12:25.773Z246.934° WSW
37 mins2025-07-02 04:05:25.773Z268.706° W2025-07-02 04:36:25.773Z210.499° SW31.002°2025-07-02 04:42:25.773Z146.614° SSE
|